Wind_Speed
6 5 5 10 9 9 10 10 11 12 15 17 17 16 12 13 10 8 11 4 6 6 6 7 7 7 4 1 2 1 1 2 3 4 4 5 5 4 4 4 4 4 4
7 6 7 7 8 8 9 12 13 12 14 16 18 20 15 11 10 6 9 3 7 8 7 8 8 8 9 7 4 2 3 4 4 4 4 4 5 5 4 4 5 5 5
8 9 9 10 10 13 11 10 12 12 12 17 15 20 14 11 8 7 5 7 4 9 10 10 10 9 10 10 10 7 4 4 5 5 5 5 5 5 6 5 6 6 6
9 9 9 8 11 9 16 13 15 14 11 18 18 16 12 9 6 7 5 4 7 4 10 12 13 12 11 11 11 11 10 12 10 7 6 5 6 7 8 8 7 7 7
10 10 10 12 14 14 16 13 13 11 16 19 17 14 11 9 1 6 6 5 7 6 7 7 12 14 14 14 13 13 13 13 14 15 9 8 6 7 9 10 11 10 9
11 11 12 12 14 15 16 15 13 19 20 19 13 10 6 9 6 4 3 8 2 4 9 5 7 12 14 16 16 15 16 16 15 16 18 15 12 12 10 10 11 13 13
11 11 11 14 13 12 14 15 17 17 17 15 10 9 7 10 10 4 6 9 6 8 9 7 12 7 9 12 15 18 18 17 17 17 17 20 19 18 16 13 13 14 14
14 11 9 11 9 9 9 9 11 12 12 11 6 1 1 5 8 14 15 7 10 11 8 6 7 12 12 13 12 12 15 19 21 21 21 21 21 21 19 18 18 16 16
10 7 5 5 2 4 7 8 9 9 10 9 5 1 8 5 2 8 15 10 8 10 12 11 7 11 14 15 12 14 16 17 18 21 23 26 27 27 25 23 22 21 19
6 4 4 1 2 4 7 9 12 11 10 9 9 1 9 12 9 5 8 13 15 5 6 9 11 8 14 15 14 14 15 17 17 18 19 20 23 26 29 30 29 27 26
8 6 3 1 1 4 7 10 12 13 12 12 8 8 5 7 13 15 7 6 9 14 20 14 11 12 12 13 14 12 15 16 18 20 21 22 22 23 24 25 28 31 31
9 7 7 3 4 6 8 10 11 13 13 12 10 7 6 7 4 6 11 17 15 9 13 19 20 18 11 11 14 12 13 18 18 20 22 23 25 25 26 26 27 28 30
13 13 9 7 7 9 11 13 16 18 17 15 13 9 10 7 6 10 11 10 12 11 14 11 15 19 22 23 16 15 13 16 17 19 21 23 25 27 28 29 29 30 31
15 10 11 9 11 11 15 16 23 35 34 18 16 14 11 11 9 6 12 11 9 8 14 16 13 16 19 22 24 18 16 18 18 17 19 21 22 25 27 29 31 31 31
19 12 13 15 16 16 15 14 24 30 27 20 15 17 16 13 11 7 10 12 11 12 7 11 15 18 23 22 29 25 25 21 20 21 20 23 26 24 23 25 29 30 32
24 18 16 19 19 22 21 27 27 30 31 24 23 19 18 16 11 9 9 10 9 11 16 13 12 15 21 26 31 33 32 30 29 23 22 24 25 27 27 27 26 30 32
22 27 24 20 25 26 26 28 34 36 38 37 34 28 20 20 13 11 13 9 9 12 15 14 17 17 21 23 26 26 28 27 28 29 27 22 20 22 25 29 30 30 33
28 30 30 29 32 33 34 34 36 40 40 41 39 36 23 20 15 13 13 12 13 15 17 20 20 22 22 21 24 26 32 31 29 28 27 23 22 24 23 26 28 33 34
30 31 33 34 36 38 41 41 43 41 42 42 40 33 26 21 22 21 17 16 17 19 23 27 22 25 26 23 23 25 26 30 25 26 29 29 31 28 27 30 29 32 32
29 32 32 35 37 38 40 42 44 42 42 40 42 34 32 28 26 22 19 19 20 23 25 24 37 32 30 30 27 29 29 30 30 30 28 32 34 29 33 36 35 31 31
29 31 32 32 32 34 35 38 43 45 44 41 41 32 33 29 24 22 24 24 24 26 30 33 35 33 28 28 28 29 33 33 32 34 37 38 37 35 34 36 37 37 37
29 30 31 30 30 31 34 38 42 45 44 35 37 34 31 29 21 26 24 23 26 31 30 34 35 36 33 30 29 30 32 36 38 33 36 36 33 36 36 36 36 37 38
31 29 28 25 26 24 31 35 41 40 35 38 34 33 31 29 26 27 25 26 30 36 36 36 28 26 27 28 31 31 34 36 32 28 31 32 31 36 33 33 31 33 37
27 26 24 25 24 25 31 32 34 35 36 34 31 33 30 28 29 29 25 28 32 29 29 29 32 31 30 29 30 33 33 31 29 30 30 31 30 35 31 29 29 32 33
24 20 22 25 28 29 31 30 29 30 31 29 31 31 30 28 28 26 25 30 31 28 27 30 33 33 32 29 31 34 31 32 31 29 26 28 30 32 30 30 30 31 31
20 18 21 25 30 27 27 24 25 27 27 26 26 27 29 26 24 24 29 28 27 26 28 30 31 33 30 29 32 29 29 28 30 32 30 33 35 32 36 28 28 32 38
Wind_Direction
280 311 345 302 320 340 343 319 322 335 334 329 321 314 333 315 313 285 293 295 248 253 250 253 248 235 228 181 143 74 262 212 205 203 210 231 238 233 243 252 260 255 239
304 290 290 304 307 329 331 320 330 336 327 341 347 342 334 338 331 312 288 316 242 241 246 244 243 239 239 232 218 197 314 278 247 237 235 233 250 254 248 257 259 262 262
292 296 307 314 315 329 311 313 316 337 311 334 330 322 333 334 340 332 293 292 261 240 239 244 246 249 247 240 239 243 239 285 281 262 249 251 259 270 269 259 262 261 264
266 278 292 312 295 332 295 326 316 313 295 314 324 322 327 330 351 302 322 305 298 264 245 241 244 248 248 248 248 242 230 243 283 276 272 266 267 271 277 280 270 263 262
271 275 287 286 301 305 301 305 309 308 318 317 317 300 314 315 145 293 306 248 267 256 269 248 252 247 248 249 247 246 247 240 239 266 275 272 267 274 277 277 280 277 269
279 291 297 301 292 303 309 310 309 305 314 309 312 300 309 348 318 311 320 270 220 237 261 262 268 246 241 251 253 250 250 253 250 247 252 257 269 280 282 276 276 275 274
274 286 291 298 306 306 318 330 323 321 314 321 313 302 349 342 11 299 355 302 276 255 270 249 262 270 272 258 257 253 254 259 258 262 266 267 268 271 267 274 278 277 273
274 276 280 295 313 321 349 347 327 322 322 326 355 78 5 290 316 309 325 326 288 287 286 262 268 271 267 264 265 274 259 257 262 263 263 265 267 269 272 271 271 271 274
260 273 278 279 340 339 0 349 355 344 332 332 354 276 164 231 257 298 312 331 308 296 292 280 253 264 272 269 271 278 274 266 263 262 265 266 264 265 265 263 264 266 266
250 212 185 168 18 352 352 352 351 358 351 341 334 349 235 232 215 243 324 339 330 308 320 306 304 265 265 275 273 265 267 271 271 270 268 264 267 266 263 264 265 263 260
188 175 179 217 331 348 349 353 351 350 351 348 339 324 324 243 238 236 238 304 331 323 313 306 322 297 285 282 278 271 270 268 268 269 269 270 266 264 264 264 263 261 262
200 203 208 228 305 321 334 338 343 344 340 338 334 322 293 291 269 249 228 230 252 257 298 305 327 320 316 301 285 282 276 275 273 273 271 270 271 270 267 265 263 263 261
205 213 226 241 269 300 320 333 343 341 336 326 319 317 305 298 273 274 273 254 254 235 248 275 314 324 307 315 303 291 286 284 284 277 277 277 274 274 274 271 267 265 265
223 223 236 253 273 288 319 331 337 330 322 317 315 310 309 309 298 297 301 296 288 268 251 265 287 309 313 312 313 327 309 314 303 295 287 281 278 274 271 270 269 267 265
233 239 240 258 268 288 296 313 323 340 325 300 317 310 303 296 293 288 281 303 315 302 269 254 271 289 294 295 296 304 304 308 298 298 289 283 280 279 277 273 272 269 266
241 250 252 265 273 284 298 298 307 319 359 319 310 311 298 291 297 297 294 294 293 302 309 303 293 289 301 297 298 300 303 305 303 299 291 281 283 281 278 276 274 272 270
245 263 270 275 280 282 286 290 299 307 316 324 322 300 298 289 283 290 304 307 310 297 310 314 302 294 298 292 296 294 299 306 312 311 308 304 284 279 279 282 282 276 271
253 253 271 276 283 287 290 294 296 300 305 312 310 308 283 282 275 279 291 287 286 297 311 314 311 314 320 323 318 308 308 302 306 312 308 304 300 290 285 281 280 277 273
265 270 272 278 282 291 293 294 297 299 299 311 311 308 280 278 282 285 288 299 305 312 310 307 304 309 316 318 310 300 298 296 295 305 300 303 300 293 291 293 290 273 272
270 273 279 281 281 287 291 294 291 295 299 303 307 306 281 278 282 280 296 306 307 304 310 301 306 305 313 312 306 307 305 304 303 301 294 292 294 287 290 289 291 282 273
268 271 276 279 282 282 289 289 290 292 294 296 299 295 281 281 279 288 285 290 291 303 306 303 305 296 307 300 303 302 298 298 295 294 294 292 293 287 286 283 284 286 284
269 271 273 278 283 286 281 285 283 284 287 289 292 292 276 275 275 281 286 291 304 314 315 316 302 291 301 300 302 298 300 300 299 295 290 289 290 287 286 283 281 278 279
269 273 275 271 262 269 281 286 283 285 285 284 283 288 270 272 275 274 283 294 305 309 306 305 311 307 295 300 299 300 301 301 304 303 297 300 298 292 287 286 282 281 278
269 268 260 260 272 278 278 286 282 282 281 279 278 284 268 268 277 283 290 293 302 303 302 301 304 303 303 302 296 300 307 303 302 301 299 300 297 290 295 291 286 283 285
253 249 262 279 281 272 283 278 276 274 275 278 276 274 267 271 278 283 293 300 302 302 302 303 305 306 305 305 306 303 302 293 298 305 308 307 297 295 296 295 295 292 291
245 272 289 286 281 282 283 280 276 282 284 280 266 263 271 281 278 288 293 298 298 304 303 304 304 302 301 301 298 293 291 302 312 311 315 306 301 308 299 299 292 299 303
Height
3215 3217 3216 3216 3214 3212 3211 3213 3214 3212 3212 3210 3208 3206 3205 3204 3204 3204 3202 3205 3206 3208 3209 3210 3211 3212 3213 3213 3214 3215 3216 3216 3217 3218 3219 3221 3221 3221 3222 3223 3223 3223 3223
3214 3214 3215 3215 3213 3212 3213 3212 3212 3212 3210 3209 3206 3205 3204 3202 3202 3203 3202 3204 3204 3206 3208 3208 3209 3211 3210 3213 3214 3214 3216 3216 3217 3217 3218 3220 3221 3221 3221 3222 3223 3223 3223
3213 3213 3213 3214 3211 3212 3212 3212 3212 3211 3209 3208 3207 3206 3204 3203 3201 3201 3201 3201 3202 3204 3205 3207 3207 3209 3211 3212 3213 3214 3215 3216 3217 3217 3218 3219 3219 3220 3221 3221 3222 3222 3222
3212 3212 3213 3212 3211 3211 3210 3209 3208 3208 3208 3207 3206 3205 3204 3202 3202 3201 3200 3201 3200 3202 3203 3205 3206 3207 3209 3210 3211 3212 3212 3214 3216 3216 3217 3217 3218 3219 3220 3220 3220 3221 3221
3210 3211 3211 3210 3210 3210 3210 3208 3207 3206 3206 3206 3205 3203 3202 3202 3202 3201 3201 3199 3201 3200 3201 3204 3204 3205 3207 3207 3209 3210 3211 3212 3213 3215 3216 3216 3216 3217 3218 3218 3219 3219 3220
3208 3208 3209 3210 3209 3208 3206 3206 3205 3205 3204 3203 3203 3202 3202 3200 3202 3201 3201 3198 3200 3200 3199 3200 3201 3201 3203 3205 3207 3207 3208 3209 3211 3212 3213 3213 3214 3215 3215 3215 3216 3217 3218
3206 3207 3207 3208 3206 3206 3204 3204 3203 3202 3202 3201 3201 3200 3198 3200 3200 3200 3201 3200 3200 3198 3198 3199 3198 3199 3200 3202 3203 3203 3204 3205 3208 3209 3209 3210 3211 3211 3212 3213 3213 3214 3215
3204 3205 3205 3205 3205 3204 3204 3204 3203 3201 3199 3199 3200 3199 3199 3201 3200 3198 3199 3200 3199 3197 3197 3198 3198 3197 3198 3199 3200 3201 3201 3202 3203 3204 3205 3205 3206 3207 3208 3208 3210 3210 3212
3203 3203 3204 3205 3205 3204 3204 3204 3202 3200 3198 3198 3198 3199 3198 3200 3200 3199 3198 3198 3197 3197 3195 3195 3197 3195 3194 3195 3197 3197 3198 3198 3198 3199 3199 3200 3200 3201 3202 3203 3204 3205 3207
3201 3202 3204 3204 3205 3206 3205 3204 3202 3200 3198 3196 3196 3197 3197 3199 3199 3199 3196 3195 3194 3194 3194 3193 3193 3195 3192 3192 3192 3193 3193 3194 3194 3194 3195 3195 3194 3194 3195 3197 3198 3199 3201
3201 3202 3203 3204 3204 3204 3204 3203 3202 3201 3199 3197 3195 3194 3195 3196 3197 3197 3197 3196 3193 3191 3190 3192 3192 3190 3190 3189 3190 3190 3188 3188 3189 3189 3189 3189 3189 3189 3189 3190 3191 3192 3194
3200 3201 3201 3202 3203 3203 3203 3202 3200 3199 3199 3197 3195 3193 3192 3193 3193 3193 3193 3193 3193 3193 3190 3187 3187 3186 3186 3186 3184 3185 3186 3185 3185 3184 3184 3183 3183 3184 3184 3184 3184 3185 3186
3197 3198 3200 3201 3201 3201 3201 3201 3200 3199 3197 3195 3193 3191 3189 3189 3190 3190 3189 3189 3188 3189 3189 3187 3185 3184 3182 3180 3180 3180 3180 3181 3180 3179 3178 3178 3177 3176 3177 3178 3178 3178 3179
3194 3196 3198 3199 3199 3198 3199 3198 3197 3196 3195 3192 3191 3189 3187 3187 3186 3186 3185 3185 3185 3185 3186 3184 3183 3181 3177 3175 3173 3174 3175 3173 3174 3173 3171 3171 3170 3169 3168 3169 3170 3170 3171
3190 3193 3195 3194 3195 3196 3196 3194 3193 3191 3186 3188 3188 3188 3186 3185 3184 3183 3182 3181 3180 3181 3181 3181 3179 3178 3175 3173 3170 3171 3171 3171 3170 3168 3165 3162 3160 3161 3162 3161 3161 3161 3162
3187 3189 3191 3191 3192 3191 3192 3190 3188 3187 3186 3186 3185 3184 3185 3182 3179 3179 3178 3178 3178 3177 3176 3176 3175 3173 3171 3170 3167 3163 3161 3161 3161 3161 3158 3155 3154 3153 3152 3152 3152 3152 3153
3184 3182 3185 3187 3187 3187 3187 3185 3184 3184 3184 3184 3183 3180 3178 3178 3176 3176 3174 3174 3173 3173 3172 3172 3171 3170 3167 3164 3161 3158 3155 3153 3151 3149 3148 3147 3146 3145 3144 3143 3143 3144 3143
3179 3181 3181 3182 3182 3181 3181 3181 3178 3176 3176 3177 3177 3174 3173 3172 3172 3172 3171 3170 3170 3169 3167 3166 3165 3163 3161 3157 3154 3152 3149 3147 3145 3143 3141 3140 3139 3137 3135 3136 3135 3133 3134
3175 3176 3176 3176 3176 3176 3175 3175 3173 3171 3170 3170 3168 3168 3167 3167 3167 3167 3167 3166 3165 3164 3162 3159 3158 3158 3155 3153 3150 3147 3145 3143 3140 3138 3136 3133 3131 3130 3127 3126 3125 3124 3124
3169 3170 3171 3172 3172 3172 3170 3168 3166 3166 3164 3163 3161 3161 3162 3161 3160 3161 3161 3161 3161 3159 3157 3154 3152 3149 3147 3145 3141 3138 3137 3135 3131 3129 3127 3125 3124 3122 3119 3116 3116 3115 3115
3164 3165 3165 3165 3166 3165 3164 3161 3160 3158 3158 3156 3155 3154 3154 3155 3155 3155 3154 3154 3152 3151 3150 3147 3145 3143 3142 3138 3134 3131 3127 3125 3123 3121 3117 3114 3114 3112 3111 3108 3104 3104 3103
3158 3158 3158 3159 3159 3158 3156 3155 3153 3150 3150 3150 3148 3147 3148 3148 3149 3149 3147 3146 3146 3143 3142 3139 3136 3134 3133 3129 3126 3122 3119 3115 3112 3113 3105 3102 3103 3098 3098 3097 3096 3094 3092
3151 3151 3151 3151 3149 3149 3149 3147 3144 3144 3145 3142 3142 3141 3142 3142 3141 3142 3142 3142 3140 3138 3135 3131 3127 3127 3122 3120 3116 3113 3110 3106 3103 3101 3096 3092 3093 3087 3087 3084 3084 3083 3080
3143 3143 3143 3143 3145 3143 3143 3141 3139 3135 3134 3133 3132 3133 3134 3136 3135 3134 3135 3134 3132 3129 3126 3123 3119 3117 3115 3112 3108 3104 3101 3098 3097 3095 3091 3086 3083 3077 3076 3075 3074 3071 3068
3136 3137 3138 3137 3136 3133 3131 3132 3129 3128 3127 3126 3127 3125 3127 3128 3128 3127 3126 3125 3123 3120 3118 3115 3111 3108 3107 3103 3099 3095 3093 3090 3088 3084 3083 3077 3072 3068 3066 3063 3061 3058 3056
3131 3132 3131 3130 3127 3126 3124 3124 3122 3120 3119 3119 3120 3119 3119 3120 3121 3120 3118 3116 3114 3112 3108 3106 3104 3101 3098 3095 3092 3088 3085 3082 3078 3074 3074 3067 3061 3059 3051 3054 3050 3047 3041